When you browse on this site, cookies collect data to enhance your experience and personalize the content and advertising you see.
Visit our Privacy Policy to learn more. By continuing to use the site, you agree to this use of cookies and data.
  • In Österreich
  • Länderverzeichnis
  • Für 7 Tage
  • Wassertemperatur
  • Wetterkarte
  • News
  • Widgets
  • user-avatar
    Anmelden

    Stündliche Wetter Zastavche

    Heute, 27 Januar, Montag

    Zeit Temperatur Niederschläge Wind Luftdruck Luftfeuchtigkeit
    00:00 +1°C° 0 mm 1 m/S 740 mmHg 82%
    01:00 +1°C° 0 mm 1 m/S 740 mmHg 83%
    02:00 +1°C° 0 mm 1 m/S 739 mmHg 85%
    03:00 +1°C° 0 mm 1 m/S 739 mmHg 86%
    04:00 +1°C° 0 mm 1 m/S 738 mmHg 87%
    05:00 +1°C° 0 mm 1 m/S 738 mmHg 88%
    06:00 +1°C° 0 mm 1 m/S 738 mmHg 88%
    07:00 +2°C° 0 mm 1 m/S 738 mmHg 88%
    08:00 +2°C° 0 mm 1 m/S 738 mmHg 87%
    09:00 +3°C° 0 mm 1 m/S 738 mmHg 85%
    10:00 +4°C° 0 mm 1 m/S 738 mmHg 82%
    11:00 +4°C° 0 mm 1 m/S 738 mmHg 80%
    12:00 +5°C° 0 mm 1 m/S 737 mmHg 79%
    13:00 +5°C° 0 mm 1 m/S 737 mmHg 79%
    14:00 +6°C° 0 mm 1 m/S 736 mmHg 83%
    15:00 +5°C° 0 mm 1 m/S 736 mmHg 85%
    16:00 +4°C° 0 mm 1 m/S 736 mmHg 86%
    17:00 +4°C° 0 mm 1 m/S 736 mmHg 88%
    18:00 +3°C° 0 mm 1 m/S 736 mmHg 88%
    19:00 +3°C° 0 mm 1 m/S 736 mmHg 87%
    20:00 +3°C° 0 mm 1 m/S 736 mmHg 87%
    21:00 +3°C° 0 mm 1 m/S 736 mmHg 87%
    22:00 +3°C° 0 mm 1 m/S 736 mmHg 86%
    23:00 +2°C° 0 mm 1 m/S 736 mmHg 86%

    Morgen, 28 Januar, Dienstag

    Zeit Temperatur Niederschläge Wind Luftdruck Luftfeuchtigkeit
    00:00 +2°C° 0 mm 1 m/S 736 mmHg 88%
    01:00 +3°C° 0 mm 1 m/S 735 mmHg 89%
    02:00 +3°C° 0 mm 1 m/S 735 mmHg 91%
    03:00 +2°C° 0 mm 1 m/S 735 mmHg 91%
    04:00 +1°C° 0 mm 2 m/S 734 mmHg 92%
    05:00 +1°C° 0 mm 2 m/S 734 mmHg 92%
    06:00 +1°C° 0 mm 2 m/S 734 mmHg 92%
    07:00 +1°C° 0 mm 2 m/S 734 mmHg 92%
    08:00 +1°C° 0 mm 2 m/S 734 mmHg 92%
    09:00 +2°C° 0 mm 2 m/S 733 mmHg 88%
    10:00 +2°C° 0 mm 3 m/S 733 mmHg 84%
    11:00 +3°C° 0 mm 3 m/S 732 mmHg 80%
    12:00 +4°C° 0 mm 3 m/S 732 mmHg 78%
    13:00 +4°C° 0 mm 3 m/S 731 mmHg 77%
    14:00 +5°C° 0 mm 4 m/S 730 mmHg 75%
    15:00 +4°C° 0 mm 4 m/S 730 mmHg 79%
    16:00 +3°C° 0 mm 3 m/S 729 mmHg 82%
    17:00 +2°C° 0 mm 3 m/S 729 mmHg 85%
    18:00 +2°C° 0 mm 3 m/S 729 mmHg 85%
    19:00 +2°C° 0 mm 3 m/S 728 mmHg 86%
    20:00 +2°C° 0 mm 3 m/S 728 mmHg 86%
    21:00 +2°C° 0 mm 3 m/S 727 mmHg 86%
    22:00 +1°C° 0 mm 3 m/S 727 mmHg 86%
    23:00 +1°C° 0 mm 3 m/S 726 mmHg 86%

    übermorgen, 29 Januar, Mittwoch

    Zeit Temperatur Niederschläge Wind Luftdruck Luftfeuchtigkeit
    00:00 +1°C° 0 mm 3 m/S 725 mmHg 85%
    01:00 +2°C° 0 mm 2 m/S 725 mmHg 85%
    02:00 +2°C° 0 mm 2 m/S 724 mmHg 84%
    03:00 +2°C° 0.4 mm 2 m/S 723 mmHg 87%
    04:00 +2°C° 0.4 mm 2 m/S 722 mmHg 89%
    05:00 +2°C° 0.4 mm 2 m/S 722 mmHg 92%
    06:00 -1°C° 1.1 mm 4 m/S 722 mmHg 94%
    07:00 -2°C° 1.1 mm 6 m/S 722 mmHg 95%
    08:00 -3°C° 1.1 mm 9 m/S 722 mmHg 97%
    09:00 -3°C° 0.6 mm 9 m/S 723 mmHg 91%
    10:00 -3°C° 0.6 mm 9 m/S 724 mmHg 85%
    11:00 -1°C° 0.6 mm 9 m/S 724 mmHg 80%
    12:00 -1°C° 0 mm 8 m/S 725 mmHg 77%
    13:00 -1°C° 0 mm 8 m/S 725 mmHg 75%
    14:00 -1°C° 0 mm 8 m/S 726 mmHg 72%
    15:00 -1°C° 0 mm 7 m/S 726 mmHg 76%
    16:00 -1°C° 0 mm 7 m/S 725 mmHg 80%
    17:00 -2°C° 0 mm 6 m/S 725 mmHg 84%
    18:00 -2°C° 0.2 mm 7 m/S 726 mmHg 86%
    19:00 -2°C° 0.2 mm 8 m/S 726 mmHg 89%
    20:00 -4°C° 0.2 mm 9 m/S 726 mmHg 91%
    21:00 -3°C° 0.5 mm 9 m/S 726 mmHg 92%
    22:00 -3°C° 0.5 mm 10 m/S 726 mmHg 93%
    23:00 -3°C° 0.5 mm 10 m/S 727 mmHg 95%

    30 Januar, Donnerstag

    Zeit Temperatur Niederschläge Wind Luftdruck Luftfeuchtigkeit
    00:00 -3°C° 0.2 mm 10 m/S 727 mmHg 91%
    01:00 -3°C° 0.2 mm 10 m/S 728 mmHg 88%
    02:00 -3°C° 0.2 mm 9 m/S 728 mmHg 85%
    03:00 -3°C° 0 mm 9 m/S 728 mmHg 86%
    04:00 -3°C° 0 mm 9 m/S 729 mmHg 88%
    05:00 -3°C° 0 mm 9 m/S 729 mmHg 89%
    06:00 -4°C° 0.2 mm 9 m/S 729 mmHg 89%
    07:00 -4°C° 0.2 mm 9 m/S 730 mmHg 89%
    08:00 -4°C° 0.2 mm 10 m/S 730 mmHg 90%
    09:00 -3°C° 0.1 mm 10 m/S 731 mmHg 89%
    10:00 -3°C° 0.1 mm 10 m/S 731 mmHg 89%
    11:00 -3°C° 0.1 mm 10 m/S 731 mmHg 89%
    12:00 -3°C° 0.2 mm 11 m/S 731 mmHg 89%
    13:00 -3°C° 0.2 mm 11 m/S 732 mmHg 89%
    14:00 -3°C° 0.2 mm 11 m/S 732 mmHg 89%
    15:00 -3°C° 0 mm 11 m/S 732 mmHg 86%
    16:00 -3°C° 0 mm 10 m/S 732 mmHg 84%
    17:00 -3°C° 0 mm 9 m/S 733 mmHg 81%
    18:00 -3°C° 0 mm 9 m/S 733 mmHg 80%
    19:00 -4°C° 0 mm 9 m/S 733 mmHg 79%
    20:00 -4°C° 0 mm 8 m/S 734 mmHg 78%
    21:00 -3°C° 0 mm 7 m/S 734 mmHg 80%
    22:00 -4°C° 0 mm 6 m/S 734 mmHg 82%
    23:00 -4°C° 0 mm 5 m/S 734 mmHg 84%

    31 Januar, Freitag

    Zeit Temperatur Niederschläge Wind Luftdruck Luftfeuchtigkeit
    00:00 -4°C° 0 mm 5 m/S 734 mmHg 84%
    01:00 -4°C° 0 mm 5 m/S 734 mmHg 85%
    02:00 -4°C° 0 mm 5 m/S 734 mmHg 85%
    03:00 -4°C° 0 mm 5 m/S 734 mmHg 83%
    04:00 -3°C° 0 mm 4 m/S 733 mmHg 81%
    05:00 -3°C° 0 mm 4 m/S 733 mmHg 79%
    06:00 -1°C° 0 mm 3 m/S 733 mmHg 78%
    07:00 -1°C° 0 mm 3 m/S 733 mmHg 78%
    08:00 -1°C° 0 mm 2 m/S 732 mmHg 78%
    09:00 0°C° 0 mm 3 m/S 732 mmHg 76%
    10:00 0°C° 0 mm 3 m/S 732 mmHg 75%
    11:00 0°C° 0 mm 4 m/S 731 mmHg 74%
    12:00 +1°C° 0.2 mm 4 m/S 731 mmHg 76%
    13:00 +1°C° 0.2 mm 4 m/S 730 mmHg 78%
    14:00 +1°C° 0.2 mm 4 m/S 730 mmHg 80%
    15:00 +1°C° 0.4 mm 4 m/S 729 mmHg 83%
    16:00 0°C° 0.4 mm 4 m/S 729 mmHg 87%
    17:00 0°C° 0.4 mm 5 m/S 728 mmHg 91%
    18:00 0°C° 0.3 mm 5 m/S 729 mmHg 91%
    19:00 +1°C° 0.3 mm 6 m/S 729 mmHg 91%
    20:00 +1°C° 0.3 mm 6 m/S 729 mmHg 91%
    21:00 +2°C° 0.3 mm 6 m/S 729 mmHg 92%
    22:00 +2°C° 0.3 mm 6 m/S 730 mmHg 93%
    23:00 +2°C° 0.3 mm 6 m/S 730 mmHg 94%

    1 Februar, Samstag

    Zeit Temperatur Niederschläge Wind Luftdruck Luftfeuchtigkeit
    00:00 +2°C° 0.2 mm 6 m/S 730 mmHg 93%
    01:00 +3°C° 0.2 mm 6 m/S 731 mmHg 92%
    02:00 +3°C° 0.2 mm 7 m/S 731 mmHg 91%
    03:00 +3°C° 0 mm 6 m/S 731 mmHg 91%
    04:00 +2°C° 0 mm 6 m/S 731 mmHg 91%
    05:00 +2°C° 0 mm 5 m/S 732 mmHg 92%
    06:00 +2°C° 0 mm 5 m/S 732 mmHg 92%
    07:00 +3°C° 0 mm 4 m/S 732 mmHg 92%
    08:00 +4°C° 0 mm 4 m/S 732 mmHg 92%
    09:00 +4°C° 0 mm 4 m/S 733 mmHg 90%
    10:00 +4°C° 0 mm 4 m/S 733 mmHg 88%
    11:00 +5°C° 0 mm 3 m/S 733 mmHg 85%
    12:00 +5°C° 0 mm 3 m/S 733 mmHg 85%
    13:00 +5°C° 0 mm 3 m/S 733 mmHg 84%
    14:00 +7°C° 0 mm 3 m/S 732 mmHg 83%
    15:00 +5°C° 0 mm 3 m/S 732 mmHg 83%
    16:00 +5°C° 0 mm 3 m/S 732 mmHg 83%
    17:00 +5°C° 0 mm 3 m/S 732 mmHg 84%
    18:00 +5°C° 0 mm 3 m/S 732 mmHg 84%
    19:00 +5°C° 0 mm 3 m/S 732 mmHg 84%
    20:00 +6°C° 0 mm 2 m/S 732 mmHg 84%
    21:00 +5°C° 0 mm 3 m/S 732 mmHg 85%
    22:00 +4°C° 0 mm 3 m/S 731 mmHg 86%
    23:00 +4°C° 0 mm 3 m/S 731 mmHg 86%
    Mehr zeigen